Regional Weather Roundup
Issued by NWS Grand Forks, ND

Home | Current Version | Previous Version | Text Only | Print | Product List | Glossary Off
Versions: 1 2 3 4 5 6 7 8 9 10 11 12 13 14 15 16 17 18 19 20 21 22 23 24 25 26 27 28 29 30 31 32 33 34 35 36 37 38 39 40 41 42 43 44 45 46 47 48 49 50

000
ASUS43 KFGF 240410
RWRFGF
PRAIRIE TO PINES  WEATHER ROUNDUP
NATIONAL WEATHER SERVICE EASTERN NORTH DAKOTA/GRAND FORKS ND
1000 PM CST THU NOV 23 2017

 **SATELLITE DATA USED TO AUGMENT SKY COVER AT AUTOMATED STATIONS**
 *****  WEATHER ACROSS EASTERN NORTH DAKOTA  *****

CITY           SKY/WX    TMP DP  RH WIND       PRES   REMARKS
GRAND FORKS    FAIR      39  35  86 SW14      29.31F
GRAND FRKS AFB FAIR      44  36  74 W14       29.31F
GRAND FRKS NWS   N/A     39 N/A N/A SW7         N/A
DEVILS LAKE    FAIR      48  36  63 SW16      29.31F
FARGO          FAIR      41  35  79 S10       29.41F
WAHPETON ARPT  NOT AVBL
$$

 ***** WEATHER ACROSS CENTRAL AND WESTERN NORTH DAKOTA  *****

CITY           SKY/WX    TMP DP  RH WIND       PRES   REMARKS
BISMARCK       FAIR      53  36  52 W7        29.44F
MINOT          FAIR      59  37  44 SW20      29.31F
JAMESTOWN      FAIR      52  37  56 SW13      29.40F
MINOT AFB      FAIR      55  37  52 W14       29.29F
GARRISON         N/A     51  38  60 SW13      29.37F
WILLISTON      FAIR      50  35  56 SW8       29.36F
DICKINSON      FAIR      54  35  48 SW18      29.45F
HETTINGER      FAIR      46  34  62 CALM      29.54F
$$

 *****  OTHER AIRPORT OBSERVATIONS IN OUR AREA  *****

CITY           SKY/WX    TMP DP  RH WIND       PRES   REMARKS
WALHALLA       FAIR      52  39  62 W13G24    29.21F
GRAFTON AIRPOR FAIR      43  37  81 SW16      29.30F
VALLEY CITY AR FAIR      48  39  71 SW16      29.41F
CANDO          FAIR      43  39  87 W9        29.30F
CAVALIER APRT  FAIR      46  37  71 SW8       29.24F
GWINNER          N/A     46  39  76 SW14      29.46F
SHEYENNE NWR     N/A     49  40  71 SW9       29.95S
ROLLA          FAIR      55  37  50 W24G30    29.27S
 ***** THE ABOVE OBSERVATIONS ARE NON NWS ARE NOT QUALITY
       CONTROLLED AND MAY MIS-REPORT RAIN FOR SNOW...
$$

  *****  WEATHER ACROSS NORTHERN MINNESOTA  *****

CITY           SKY/WX    TMP DP  RH WIND       PRES   REMARKS
FLAG ISLAND    FAIR      28  27  93 S14       29.25F WCI  17
WARROAD        FAIR      39  36  87 SW13G18   29.27F
ROSEAU         FAIR      41  36  81 S18G24    29.26F
HALLOCK        FAIR      37  34  87 S10       29.26F
THF RVR FALLS  FAIR      42  35  76 SW14      29.33F
BAUDETTE       FAIR      33  28  81 S7        29.29F
WASKISH        FAIR      39  34  81 S8        29.33F
CROOKSTON      FAIR      43  36  75 SW14      29.34F
STEPHEN NDAWN    N/A     37  34  87 S14         N/A
GREENBUSH NDAW   N/A     41  34  75 SW12        N/A
$$
  *****  WEATHER ACROSS CENTRAL AND WEST MINNESOTA  *****

CITY           SKY/WX    TMP DP  RH WIND       PRES   REMARKS
FOSSTON        FAIR      39  34  81 S17       29.38F
BEMIDJI        FAIR      38  32  78 S10       29.39F
PARK RAPIDS    FAIR      34  29  82 S6        29.44F
ELBOW LAKE     FAIR      40  34  80 S13       29.49F
WADENA         FAIR      37  32  81 S8        29.46F
DETROIT LAKES  FAIR      46  37  71 SW14      29.43F
MOORHEAD       FAIR      43  34  70 S13       29.42F
FERGUS FALLS   FAIR      39  34  81 S10       29.49F
MORRIS MN      FAIR      43  36  75 S10       29.50F
STAPLES        FAIR      36  30  80 S7        29.49F
$$
  *****  WEATHER ELSEWHERE ACROSS MINNESOTA  *****

CITY           SKY/WX    TMP DP  RH WIND       PRES   REMARKS
DULUTH         FAIR      35  26  69 SW15G24   29.50F
INTRNTL FALLS  FAIR      35  26  69 VRB6      29.34F
ELY            MOCLDY    34  25  69 S13G18    29.44F WCI  25
CLOQUET        FAIR      36  25  64 S10G18    29.51F
WHEATON        FAIR      52  37  58 SW10      29.49F
BRAINERD       FAIR      38  29  70 S13       29.49F
HIBBING        FAIR      33  24  69 S7        29.46F
ALEXANDRIA     FAIR      44  35  70 SW10      29.51F
SAINT CLOUD    FAIR      42  32  67 S10       29.55F
MINNEAPOLIS    MOCLDY    46  32  58 S9        29.63F
$$

  *****  WEATHER ACROSS SOUTH DAKOTA  *****

CITY           SKY/WX    TMP DP  RH WIND       PRES   REMARKS
SIOUX FALLS    FAIR      54  42  64 SW9       29.62F
BROOKINGS      FAIR      45  37  73 S12       29.59F
WATERTOWN      FAIR      42  37  82 S9        29.55F
HURON          FAIR      50  40  68 S10       29.55F
SISSETON         N/A     55  41  59 SW22      29.47F
ABERDEEN       FAIR      39  36  89 S9        29.51F
MITCHELL       FAIR      55  41  59 SW10      29.60F
PIERRE         FAIR      54  39  57 W13       29.56F
MOBRIDGE       FAIR      49  37  63 SE6       29.49F
RAPID CITY     FAIR      53  32  44 W10       29.65F
$$

  *****  SOME WEATHER IN NEARBY STATES *****

CITY           SKY/WX    TMP DP  RH WIND       PRES   REMARKS
GLASGOW MT     MOCLDY    61  39  44 W21G26    29.39F
GREAT FALLS MT FAIR      51  39  63 SW25G32   29.51F
CHEYENNE WY    FAIR      55  30  38 W17       29.96F
SCOTTSBLUFF NE FAIR      54  35  48 W5        29.82F
OMAHA NE       CLOUDY    49  38  65 SE9       29.78F
DES MOINES IA  CLOUDY    46  34  62 S10       29.81F
DAVENPORT IA   FLURRIES  32  25  75 S7        29.91F
CHICAGO IL     FAIR      34  26  72 S5        29.90S
EAU CLAIRE WI  FAIR      33  22  63 S6        29.68F
LA CROSSE WI   FAIR      40  26  57 S12       29.76F
$$

  *****  SOME NATIONAL WEATHER *****

CITY           SKY/WX    TMP DP  RH WIND       PRES   REMARKS
LA GUARDIA NY  FAIR      40  22  48 NW7       30.04S
RALEIGH NC     FAIR      32  29  88 CALM      30.07F
ATLANTA GA     FAIR      48  40  73 CALM      30.02S
NEW ORLEANS LA FAIR      54  39  57 N5        30.06S
OKLAHOMA CITY  FAIR      50  33  52 S6        29.99F
ALBUQUERQUE NM MOCLDY    53  32  44 N5        30.20R
SALT LAKE CITY MOCLDY    56  42  59 SE7       30.04F
LOS ANGELES CA FAIR      68  57  68 SW5       29.93R
BOISE ID       CLOUDY    59  45  59 SW8       29.91R
SEATTLE WA     FAIR      48  44  86 S12       29.93R
$$

*** WEATHER ACROSS MANITOBA...SASKATCHEWAN AND ONTARIO ***
                ***ONTARIO***

CITY           SKY/WX    TMP DP  RH WIND       PRES   REMARKS
GERALDTON      CLOUDY    12  10  92 SE6       29.61F WCI   3
THUNDER BAY    MOCLDY    34  30  86 SE7       29.55F
SIOUX LOOKOUT  FRZ RAIN  27  23  86 S10G18    29.28F WCI  17
TORONTO        CLOUDY    36  25  64 W10       29.92F
BIG TROUT LK   CLOUDY     7   1  78 SE10      29.48F WCI  -8
PICKLE LAKE    NOT AVBL
DRYDEN         CLOUDY    30  28  93 S13       29.26F WCI  20
KENORA         CLOUDY    30  27  86 S16G22    29.22F WCI  19
$$
                *** MANITOBA***

CITY           SKY/WX    TMP DP  RH WIND       PRES   REMARKS
BRANDON        PTCLDY    41  36  81 W20       29.22R
DAUPHIN        PTCLDY    39  34  81 W24G32    29.16R
ISLAND LAKE    FRZ RAIN  10   7  85 SE14      29.26F WCI  -5
PILOT MOUND      N/A     37  34  87 SW9         N/A
THE PAS        CLOUDY    14  10  85 S5        29.15F WCI   6
THOMPSON       LGT SNOW   3  -2  78 E3        29.26F
WINNIPEG       MOCLDY    37  34  87 S15       29.16F
LYNN LAKE      FLURRIES   1  -2  85 E12       29.15F WCI -15
CHURCHILL      PTCLDY   -11 -17  77 SW6       29.43F WCI -25
$$
                ***SASKATCHEWAN***

CITY           SKY/WX    TMP DP  RH WIND       PRES   REMARKS
ESTEVAN        PTCLDY    41  37  87 W12       29.31F
KINDERSLEY     CLOUDY    36  32  87 W12       29.33S
LLOYDMINSTER   PTCLDY    36  32  87 W18       29.27R
PRINCE ALBERT  PTCLDY    25  21  86 VRB2      29.21S
REGINA         CLOUDY    34  32  93 W7        29.34R
YORKTON        CLOUDY    36  32  87 W8        29.22F
N. BATTLEFORD  PTCLDY    36  28  75 W10       29.29R
LA RONGE       CLOUDY    18  16  93 CALM      29.04F
SASKATOON      CLOUDY    36  30  80 SW13      29.29R
SWIFT CURRENT  MIX PCPN  36  34  93 W8        29.37F
$$
NOTE: THESE ARE AUTOMATED STATIONS WITH LIMITED QUALITY CONTROL
      "FAIR" INDICATES FEW OR NO CLOUDS BELOW 12,000 FEET WITH NO
      SIGNIFICANT WEATHER AND/OR OBSTRUCTIONS TO VISIBILITY.
      SKY/WX - SKY CONDITION AND SIGNIFICANT WEATHER.
      TMP - AIR TEMPERATURE.    DP   - DEWPOINT TEMPERATURE.
      RH  - RELATIVE HUMIDITY.  PRES - PRESSURE.
      HX  - HEAT INDEX.         WCI  - WIND CHILL INDEX.
$




USA.gov is the U.S. government's official web portal to all federal, state and local government web resources and services.